UNISAT 6

Satellite information

Favourite Embed

Satellite Type and Status

PAYLOADIN ORBIT

Key statistics

Satellite UNISAT 6 at a glance.

Uptime

4100

Days in orbit

Revolutions

≈ 14.9

Per day

Orbit

SSO

Sun Synchronous Orbit

Inclination

97.8

Latest

Satellite identification and parameters

Extended collection of information and parameters for UNISAT 6.

Object identification

Identified? True

Debris? False

Object name: UNISAT 6

International designator: 2014-033C

Object number (NORAD): 40012

Object ID (CCSDS): 40012

Country: ITALY (IT)

Current information (Y/N): Y

RCS size: MEDIUM

Orbital parameters

Period: 96.921 minutes

Inclination: 97.7535 deg

SMA: 6989.396 km

Apoapsis: 643.456 km

Periapsis: 579.067 km

RAAN: 44.5714 deg

Eccentricy: 0.00460617

Argument of periapsis: 278.5867 deg

Mean anomaly: 81.0131 deg

Mean motion: 14.85741528 rev/day

Mean motion (dot): 0.00003441 rev/day2

B* drag term: 0.00039504401 1/REarth

Two-line elements (TLE)

Creation date: Sept. 8, 2025, 3:16 a.m.

Reference frame: TEME

Reference center: EARTH

Epoch: Sept. 7, 2025, 7:27 p.m. UTC

TLE line 0: 0 UNISAT 6

TLE line 1: 1 40012U 14033C 25250.81057551 .00003441 00000-0 39504-3 0 9990

TLE line 2: 2 40012 97.7535 44.5714 0046062 278.5867 81.0131 14.85741528604190

Live tracking on map

Real-time ground track for satellite UNISAT 6.

In-orbit conjunctions

There are no conjunctions computed for UNISAT 6, at the moment. Check back to stay up to date, as we update our databases every day.

Go to all conjunctions

Associated space launch

UNISAT 6 was lifted into orbit during the mission ‘Dnepr 1 | Multipayload, 37 satellites.’, on board a Dnepr space rocket.

The launch took place on June 19, 2014, 7:11 p.m. from 370/13.

For more information about the launch, click the button.

Launch to space Dnepr 1 | Multipayload, 37 satellites.
Dnepr 1 | Multipayload, 37 satellites.

Agency: N/A

Status: Launch Successful

Launch date: June 19, 2014, 7:11 p.m. UTC

Rocket: Dnepr

Launch pad: 370/13

Location: Dombarovskiy, Russian Federation

...

Latest news about this satellite

There are no fresh news available about this satellite. Check back as we update our databases every day.


Newsletter sign-up

Weekly statistics, charts and insights to help you stay on top of the space industry.